015  
ASUS43 KLSX 192057  
RWRMO  
 
WEATHER SUMMARY FOR MISSOURI  
NATIONAL WEATHER SERVICE SPRINGFIELD MO  
400 PM CDT FRI JUL 19 2019  
 
NOTE: "FAIR" INDICATES FEW OR NO CLOUDS BELOW 12,000 FEET WITH NO  
SIGNIFICANT WEATHER AND/OR S TO VISIBILITY
.  
CURRENT SKY AND/OR WEATHER CONDITIONS ARE NOT AVAILABLE FOR  
CHILLICOTHE AND FARMINGTON.  
 
MOZ001>031-035>038-043-044-053-054-192200-   
..NORTHERN AND WESTERN MISSOURI
 
 
 
CITY SKY/WX TMP DP RH WIND PRES REMARKS
 
KANSAS CTY INT SUNNY 96 77 54 S16G26 29.82F HX 111  
LEE'S SUMMIT SUNNY 95 75 52 S15G30 29.85F HX 107  
ST JOSEPH SUNNY 95 77 55 S15G23 29.78F HX 109  
CHILLICOTHE N/A 96 77 54 S9G25 29.82F HX 111  
 

 
MOZ066>068-077>081-088>096-101>105-192200-   
..SOUTHWEST MISSOURI
 
 
 
CITY SKY/WX TMP DP RH WIND PRES REMARKS
 
SPRINGFIELD MOSUNNY 95 74 50 S16G24 29.93F HX 105  
JOPLIN MOSUNNY 93 76 57 S18G24 29.91S HX 105  
BRANSON MOSUNNY 93 73 52 S8 29.99S HX 102  
 

 
MOZ032>034-039>042-045>050-055>058-069>072-192200-   
..CENTRAL MISSOURI
 
 
 
CITY SKY/WX TMP DP RH WIND PRES REMARKS
 
COLUMBIA NOT AVBL  
ROLLA MOSUNNY 92 75 57 S12 29.95F HX 103  
SEDALIA SUNNY 91 76 61 S16 29.89F HX 103  
WARRENSBURG SUNNY 91 75 59 S12G20 29.85F HX 102  
 

 
MOZ051-052-059>065-192200-   
..EAST CENTRAL MISSOURI
 
 
 
CITY SKY/WX TMP DP RH WIND PRES REMARKS
 
ST LOUIS INTL MOSUNNY 96 73 47 S13G24 29.91F HX 105  
 

 
MOZ072>076-082>087-097>100-106>115-192200-   
..SOUTH CENTRAL AND SOUTHEAST MISSOURI
 
 
 
CITY SKY/WX TMP DP RH WIND PRES REMARKS
 
CAPE GIRARDEAU FAIR 91 75 59 S14 29.95F HX 101  
POPLAR BLUFF FAIR 91 79 67 S9G20 29.95F HX 107  
WEST PLAINS SUNNY 91 74 57 SW9 30.00F HX 100  
 

 
 
 
CLICK HERE TO GO TO PREVIOUS BULLETINS.

The Nexlab MO Page Main Text Page